TimeEDT,TemperatureF,Dew PointF,Humidity,Sea Level PressureIn,VisibilityMPH,Wind Direction,Wind SpeedMPH,Gust SpeedMPH,PrecipitationIn,Events,Conditions,WindDirDegrees,DateUTC
12:56 AM,66.0,63.0,90,30.11,7.0,Calm,Calm,-,N/A,,Clear,0,2013-09-07 04:56:00
1:56 AM,64.9,63.0,93,30.11,6.0,Calm,Calm,-,N/A,,Clear,0,2013-09-07 05:56:00
2:56 AM,64.0,62.1,93,30.11,6.0,Calm,Calm,-,N/A,,Clear,0,2013-09-07 06:56:00
3:56 AM,63.0,61.0,93,30.10,6.0,Calm,Calm,-,N/A,,Clear,0,2013-09-07 07:56:00
4:56 AM,62.1,60.1,93,30.10,6.0,Calm,Calm,-,N/A,,Clear,0,2013-09-07 08:56:00
5:56 AM,62.1,59.0,90,30.11,7.0,Calm,Calm,-,N/A,,Clear,0,2013-09-07 09:56:00
6:56 AM,62.1,60.1,93,30.12,6.0,North,3.5,-,N/A,,Clear,360,2013-09-07 10:56:00
7:56 AM,64.0,61.0,90,30.13,5.0,North,3.5,-,N/A,,Clear,10,2013-09-07 11:56:00
8:56 AM,68.0,64.0,87,30.14,9.0,Calm,Calm,-,N/A,,Clear,0,2013-09-07 12:56:00
9:56 AM,73.0,64.0,73,30.14,10.0,NNE,4.6,-,N/A,,Clear,30,2013-09-07 13:56:00
10:56 AM,77.0,64.9,66,30.14,10.0,Calm,Calm,-,N/A,,Clear,0,2013-09-07 14:56:00
11:56 AM,80.1,64.9,60,30.14,10.0,Calm,Calm,-,N/A,,Clear,0,2013-09-07 15:56:00
12:56 PM,82.9,64.9,54,30.12,10.0,NNE,5.8,-,N/A,,Mostly Cloudy,20,2013-09-07 16:56:00
1:56 PM,81.0,64.0,56,30.11,10.0,Variable,3.5,-,N/A,,Mostly Cloudy,0,2013-09-07 17:56:00
2:56 PM,82.9,63.0,51,30.08,10.0,Variable,3.5,-,N/A,,Partly Cloudy,0,2013-09-07 18:56:00
3:56 PM,84.9,64.0,49,30.05,10.0,Calm,Calm,-,N/A,,Clear,0,2013-09-07 19:56:00
4:56 PM,84.9,64.0,49,30.04,10.0,Variable,4.6,-,N/A,,Clear,0,2013-09-07 20:56:00
5:56 PM,82.9,64.0,53,30.03,10.0,WNW,3.5,-,N/A,,Clear,290,2013-09-07 21:56:00
6:56 PM,81.0,66.0,60,30.01,10.0,Calm,Calm,-,N/A,,Clear,0,2013-09-07 22:56:00
7:56 PM,75.0,68.0,79,30.02,10.0,Calm,Calm,-,N/A,,Clear,0,2013-09-07 23:56:00
8:56 PM,72.0,66.9,84,30.03,10.0,Calm,Calm,-,N/A,,Clear,0,2013-09-08 00:56:00
9:56 PM,70.0,66.9,90,30.03,9.0,Calm,Calm,-,N/A,,Clear,0,2013-09-08 01:56:00
10:56 PM,70.0,66.9,90,30.03,8.0,Calm,Calm,-,N/A,,Clear,0,2013-09-08 02:56:00
11:56 PM,69.1,66.0,90,30.02,8.0,Calm,Calm,-,N/A,,Clear,0,2013-09-08 03:56:00